Tracking 22879 objects as of 22-Apr-2021
HD Live streaming from Space Station
objects crossing your sky now

SL-8 DEB

Track SL-8 DEB now!
10-day predictions


NORAD ID: 21408
Int'l Code: 1991-009BX
Perigee: 1,456.8 km
Apogee: 1,780.2 km
Inclination: 74.0 °
Period: 118.5 minutes
Semi major axis: 7989 km
RCS: 0.0598 m2 (small)
Launch date: February 12, 1991
Source: Commonwealth of Independent States (former USSR) (CIS)
Launch site: PLESETSK MISSILE AND SPACE COMPLEX (PKMTR)

Note: This is SATELLITE DEBRIS
aabbcc
Your satellite tracking list
Your tracking list is empty




NASA's NSSDC Master Catalog

Two Line Element Set (TLE):
1 21408U 91009BX  21111.82135733  .00000155  00000-0  16295-2 0  9998
2 21408  74.0226 135.8791 0202440 228.4073 309.2282 12.15693794336645
Source of the keplerian elements: AFSPC